Location: The C. Gantt Observatory
(33.6981°N, 81.6836°W)
Time: 00:54:50
(UTC-04:00)

Daily predictions for brighter satellites

Satellite Brightness Start Highest point End
(mag) Time Altitude Azimuth Time Altitude Azimuth Time Altitude Azimuth
Terra 3.7 00:16:52 26° WNW 00:16:52 26° WNW 00:19:31 10° NW
Cosmos 1833 Rocket 3.9 00:35:34 10° NNW 00:39:00 38° NW 00:39:00 38° NW
Cosmos 2082 Rocket 3.8 00:48:26 10° NW 00:51:28 28° WNW 00:51:28 28° WNW
Cosmos 2369 Rocket 3.6 01:43:16 34° N 01:43:16 34° N 01:46:38 10° N
NOSS 3-1 (A) 4.2 01:36:40 10° NNW 01:44:02 71° NE 01:44:02 71° NE
Lacrosse 5 3.9 02:06:21 24° NNW 02:06:21 24° NNW 02:09:16 10° NNE
ATLAS 2AS CENTAUR R/B 4.0 01:58:21 10° NNW 02:05:51 40° NE 02:08:36 31° E
CZ-2C R/B 4.3 02:04:08 10° N 02:06:52 29° NNW 02:06:52 29° NNW
Cosmos 1943 Rocket 3.5 02:34:07 35° NNW 02:34:07 35° NNW 02:37:41 10° N
CZ-3B DEB 4.3 02:02:11 10° NW 02:34:14 87° SW 02:39:10 47° SE
Resurs 1-4 Rocket 4.5 02:53:19 10° ENE 02:55:34 13° E 02:56:07 12° E
Cosmos 2233 Rocket 4.2 02:59:20 66° NNE 02:59:20 66° NNE 03:04:36 10° N
Cosmos 2098 Rocket 4.5 03:05:21 55° NW 03:05:21 55° NW 03:11:30 10° N
SeaSat 1 4.5 03:13:21 19° NW 03:13:21 19° NW 03:14:48 10° NW
SL-08 R/B 4.4 03:12:34 41° NNE 03:12:34 41° NNE 03:15:50 10° N
BREEZE-M DEB (TANK) 4.4 03:11:19 10° NW 03:19:57 36° NNE 03:22:11 18° ENE
NOSS 3-3 (C) 4.5 03:31:12 46° WNW 03:31:26 47° NW 03:37:47 10° NNE
Cosmos 2219 4.1 03:28:12 10° NNW 03:31:46 38° NW 03:31:46 38° NW
ARIANE 5 R/B 3.3 03:30:16 10° NNE 03:35:09 43° E 03:35:16 43° ESE
Milstar 3 Cent rocket 3.4 03:39:48 32° SE 03:39:48 32° SE 03:44:35 10° E
SL-16 R/B 3.6 03:35:58 17° SE 03:40:21 40° ENE 03:46:02 10° N
Cosmos 44 4.0 03:36:46 10° NNW 03:41:47 52° ENE 03:42:37 46° E
Cosmos 2227 Rocket 3.4 03:37:06 10° N 03:42:23 38° ENE 03:47:34 10° SE
CZ-2D R/B 3.1 03:37:22 10° NNE 03:42:27 39° E 03:43:29 35° SE
Spot 4 Rocket 4.1 03:38:30 10° NNE 03:43:25 76° ENE 03:43:25 76° ENE
IRS-1C 4.2 03:40:04 10° N 03:44:58 67° NW 03:44:58 67° NW
Cosmos 2034 Rocket 4.2 03:47:56 52° SSE 03:49:20 67° E 03:55:30 10° NNE
Cosmos 2278 3.5 03:51:23 81° W 03:51:28 82° WNW 03:57:09 10° NNE
Cosmos 2369 3.5 03:51:18 84° S 03:51:29 87° ESE 03:57:11 10° NNE
IRS-1D 3.6 03:50:08 10° NNE 03:55:03 63° E 03:55:21 62° ESE
USA 161 4.5 03:57:20 15° N 03:57:20 15° N 03:57:57 10° N
ATLAS 2AS CENTAUR R/B 3.4 03:49:29 10° NW 03:55:56 41° W 03:55:56 41° W
Okean O Rocket 4.0 03:55:52 10° NE 03:58:42 17° E 04:00:47 13° SE
Cosmos 405 Rocket 3.4 03:59:07 10° N 04:02:38 57° NE 04:02:38 57° NE
Cosmos 1814 Rocket 4.0 04:02:38 64° SSE 04:03:15 72° ESE 04:08:36 10° NNE
ATLAS CENTAUR R/B 2.1 04:03:58 56° SE 04:04:17 58° ESE 04:09:15 10° NE
Cosmos 2297 Rocket 3.4 03:59:10 10° N 04:04:30 41° ENE 04:09:47 10° SE
UNKNOWN OBJECT B 3.7 04:05:28 10° NNE 04:09:11 40° E 04:09:18 40° ESE
Meteor 1-24 Rocket 4.4 04:07:26 10° N 04:12:59 53° E 04:17:50 15° SSE
GEOS 3 Rocket 3.7 04:08:48 10° SE 04:14:00 74° NE 04:19:11 10° NNW
EO 1 Del DPAF 3.8 04:17:32 48° ESE 04:18:13 56° ENE 04:22:01 10° N
Cosmos 220 Rocket 4.1 04:17:02 10° NNW 04:21:22 71° ENE 04:22:31 46° SE
SL-24 R/B 4.4 04:24:10 53° SSW 04:25:18 71° WSW 04:30:05 10° NNW
Cosmos 858 Rocket 4.4 04:26:43 10° NNW 04:31:58 86° ENE 04:35:58 18° SSE
Cosmos 468 Rocket 4.3 04:32:14 44° W 04:33:03 48° WNW 04:38:04 10° N
Cosmos 1408 Rocket 4.4 04:29:27 10° N 04:33:42 49° E 04:37:11 15° SSE
Cosmos 2150 Rocket 3.8 04:28:42 10° NNW 04:33:56 82° WSW 04:36:56 26° S
SL-8 R/B 3.5 04:29:13 10° NW 04:34:01 81° SW 04:38:46 10° SE
Resurs 1-4 Rocket 2.1 04:30:33 10° N 04:35:45 61° WNW 04:37:12 44° SW
Cosmos 1378 3.8 04:33:14 10° N 04:36:57 53° E 04:38:50 26° SSE
Cosmos-2242 3.9 04:35:45 23° SSE 04:38:06 47° E 04:42:14 10° NNE
Cosmos 1634 Rocket 4.4 04:34:38 17° S 04:39:29 62° E 04:45:40 10° NNE
CZ-4B R/B 4.2 04:34:32 10° NNE 04:39:48 44° E 04:44:20 13° SSE
Cosmos 1707 3.5 04:39:13 10° NNW 04:42:16 36° WNW 04:42:16 36° WNW
Cosmos 1441 Rocket 4.1 04:39:39 10° N 04:43:32 50° E 04:47:05 12° SSE
BREEZE-M DEB (TANK)4.104:50:53SE04:50:53SE04:45:37NW
NOSS 7 (H) 4.2 04:51:51 61° S 04:52:19 80° ESE 04:55:32 10° NNE
CZ-4B R/B 3.9 04:49:32 10° NNE 04:53:18 41° E 04:56:01 16° SSE
Cosmos 1898 Rocket 3.7 04:48:27 10° NNW 04:53:37 51° WSW 04:56:35 24° SSW
Okean 3 Rocket 4.3 04:53:02 10° NNW 04:56:58 33° W 04:57:18 32° W
SME Rocket 4.3 04:55:33 32° SW 04:57:03 38° W 05:03:17 10° NNW
Cosmos 1092 Rocket 4.0 04:52:12 10° N 04:58:29 84° W 05:04:49 10° S
GPS 2-04 Rocket1 2.6 05:01:22 34° W 05:02:56 79° NNW 05:06:40 10° ENE
ISS 0.1 05:02:26 10° N 05:03:37 12° NNE 05:04:50 10° NE
Cosmos 1656 4.3 05:02:20 26° WSW 05:04:50 40° WNW 05:10:09 10° N
Cosmos 841 Rocket 3.7 05:04:53 27° SW 05:07:37 57° WNW 05:12:49 10° N
Aurora 2 Rocket 3.6 05:09:09 18° S 05:09:09 18° S 05:11:26 10° SE
SEDSat Delta rocket 4.3 05:09:00 24° SSW 05:09:23 24° SSW 05:13:39 10° SSE
ASTRO E2 2.7 05:08:00 31° WSW 05:09:43 61° S 05:13:43 10° ESE
OAO 3 Rocket 3.6 05:09:20 26° WSW 05:11:17 38° SSW 05:15:36 10° SE
Cosmos 1937 Rocket 3.7 05:06:23 10° NNW 05:11:21 48° WSW 05:16:20 10° S
Cosmos 2082 4.3 05:07:44 10° NW 05:12:44 33° WSW 05:16:27 16° SSW
CZ-4B DEB 4.3 05:07:17 10° NNE 05:12:52 82° ESE 05:18:15 11° SSW
Cosmos 1697 Rocket 3.1 05:10:27 24° SW 05:13:30 46° WNW 05:18:57 10° N
ARIANE 5 R/B 4.1 05:10:25 10° NNW 05:13:54 19° WNW 05:15:37 16° W
PSLV R/B 4.0 05:12:42 10° N 05:16:28 51° WNW 05:18:25 25° SW
Cosmos 1763 Rocket 4.1 05:14:36 23° WSW 05:17:19 40° WNW 05:22:13 10° N
SWIFT 4.3 05:18:01 13° S 05:18:14 13° S 05:20:17 10° SSE
Cosmos 2142 Rocket 4.5 05:13:22 15° SSW 05:18:33 64° W 05:24:39 10° N
NOSS 3-4 (A) 3.8 05:12:31 10° NNW 05:19:38 85° WSW 05:27:09 10° SSE
NOSS 3-4 (C) 3.8 05:12:37 10° NNW 05:19:47 85° WSW 05:27:19 10° SSE
Thor Agena Rocket 3.7 05:14:58 10° SSE 05:19:59 74° ENE 05:25:01 10° N
Cosmos 1980 Rocket 2.2 05:15:59 19° SSW 05:20:01 69° WNW 05:25:40 10° NNE
CZ-2D R/B 3.5 05:18:02 10° NNW 05:22:13 23° WNW 05:24:49 16° WSW
In-Cosmos 22 4.0 05:17:14 10° N 05:22:31 79° W 05:27:47 10° S
Cosmos 1470 3.5 05:19:55 10° S 05:23:43 53° E 05:27:34 10° NNE
SL-16 R/B 3.5 05:21:04 19° SW 05:24:00 26° W 05:29:04 10° NW
ARGOS Delta rocket 3.9 05:19:48 10° N 05:24:58 86° WNW 05:29:50 10° SSW
Delta 7925 Rocket 4.3 05:22:53 20° SW 05:25:21 29° SSW 05:29:27 10° SE
Cosmos 2227 Rocket 3.2 05:21:43 10° NW 05:26:08 24° W 05:29:11 15° SW
Cosmos 2322 Rocket 3.0 05:23:48 10° S 05:29:13 51° ESE 05:34:37 10° NNE
Cosmos 1758 4.2 05:32:17 18° SW 05:34:43 32° W 05:38:22 10° NNW
Okean O Rocket 2.4 05:31:10 10° N 05:35:08 34° WNW 05:38:15 15° SW
Cosmos 1674 3.5 05:31:44 10° N 05:35:26 52° E 05:39:06 10° SSE
CZ-3 Stage 3 3.8 05:02:08 10° W 05:36:39 73° SSW 05:42:15 10° ESE
Cosmos 2279 Rocket 4.0 05:32:14 10° S 05:38:28 75° W 05:44:45 10° N
Cosmos 1544 3.3 05:36:31 12° SSW 05:39:50 52° W 05:43:26 10° N
BREEZE-M DEB (TANK) 4.2 05:36:45 10° W 05:40:55 28° NNW 05:44:38 10° NNE
ADEOS Rocket 3.8 05:35:24 10° NNE 05:41:50 63° ESE 05:48:57 10° S
Cosmos 1953 3.5 05:39:53 15° SW 05:42:18 25° WNW 05:45:42 10° NNW
Cosmos 1437 2.8 05:39:19 10° NNW 05:42:36 59° W 05:45:52 10° S
Cosmos 1500 Rocket 3.5 05:38:42 10° N 05:43:07 83° W 05:47:28 10° S
USA 116 4.4 05:40:16 10° SSE 05:43:14 45° ENE 05:46:18 10° N
ATLAS CENTAUR R/B 3.7 05:40:23 10° W 05:43:45 18° NW 05:47:08 10° N
Cosmos 1655 Rocket 4.1 05:39:13 10° NNW 05:45:34 69° W 05:51:54 10° S
Cosmos 1743 Rocket 3.8 05:42:33 10° NNW 05:46:43 47° W 05:50:53 10° SSW
Cosmos 2297 Rocket 3.3 05:43:58 10° NW 05:48:11 22° W 05:52:23 10° SSW
Cosmos 2360 4.5 05:44:44 10° SW 05:50:18 55° WNW 05:55:54 10° NNE
ADEOS II 2.2 05:47:08 10° NNE 05:52:25 80° ESE 05:57:39 10° S
Cosmos 540 Rocket 3.7 05:51:11 10° SSW 05:56:13 53° WNW 06:01:17 10° N
Meteor 1-31 Rocket 3.8 05:52:49 10° NNE 05:56:36 47° E 06:00:21 10° S
SL-16 R/B 2.3 05:53:54 10° SSW 05:59:33 89° ESE 06:05:15 10° NNE
Meteor PRIRODA 3.6 05:58:24 10° N 06:02:04 79° WNW 06:05:43 10° SSW
Aureole 1 Rocket 3.9 05:57:46 10° SSW 06:02:52 65° WNW 06:09:43 10° NNE
Cosmos 2151 3.1 06:02:09 10° N 06:06:28 82° E 06:10:46 10° S
Cosmos 2266 Rocket 4.5 06:04:16 10° N 06:10:22 68° E 06:16:34 10° SSE
